Temp
10 10 10 10 10 10 10 10 10 9 9 9 9 9 9 9 9 10 13 15 16 17 17 16 16 18 21 21 22 22 20 20 21 22 24 27 27 28 28 27 28 29 29 27 26
10 10 10 10 10 10 10 10 10 9 9 9 9 9 9 9 9 12 13 14 14 14 15 16 17 18 18 20 21 20 19 20 23 24 25 27 27 27 27 27 27 27 26 25 25
10 10 10 10 10 10 10 10 10 9 9 9 9 9 9 9 11 16 14 14 14 15 16 16 18 18 18 20 20 20 19 22 23 24 25 26 26 27 26 25 27 26 24 24 23
11 11 11 10 10 10 10 10 10 10 9 9 9 9 9 9 13 15 15 15 14 15 16 16 17 16 18 19 20 20 21 22 22 23 24 24 26 25 25 25 27 27 25 23 23
11 11 11 10 10 10 10 10 10 9 9 9 9 9 9 10 12 13 14 15 15 15 16 16 17 17 17 19 20 19 21 23 23 23 23 24 23 24 24 26 27 27 26 23 23
12 11 11 11 10 10 10 9 9 9 9 9 9 8 9 9 12 14 15 15 14 14 15 15 15 17 16 19 20 20 20 21 23 23 24 23 23 24 25 26 26 26 26 24 23
12 12 12 11 11 10 9 9 9 9 9 8 8 9 10 10 12 13 13 13 14 14 14 15 15 14 14 16 20 20 18 20 21 23 23 24 22 23 24 25 25 25 24 24 24
12 12 12 12 11 10 9 9 9 8 8 8 8 9 9 11 13 13 13 13 14 14 15 15 16 14 14 16 17 18 19 17 20 21 23 22 20 23 24 24 24 24 24 24 24
12 12 12 12 12 11 9 8 8 8 8 8 8 9 10 13 13 14 14 14 14 15 16 16 16 13 14 14 15 17 16 18 19 22 22 22 21 22 24 24 24 25 24 25 24
12 12 12 12 12 11 9 8 7 8 8 9 10 10 11 13 15 14 13 14 14 15 15 15 14 12 12 14 14 15 17 18 19 21 22 22 22 23 24 24 24 25 25 25 25
12 12 12 12 12 11 8 6 8 8 9 11 12 11 13 14 14 13 14 14 14 14 12 15 13 11 13 14 16 18 18 19 20 21 21 21 21 23 24 24 24 24 25 25 26
11 12 11 11 11 8 7 7 7 6 6 10 11 12 12 11 11 12 14 12 12 11 13 13 12 15 16 16 16 16 16 16 18 20 21 21 22 23 24 24 24 24 25 25 26
11 11 11 10 9 6 6 5 4 5 5 9 13 12 13 13 11 13 14 14 12 12 13 12 14 16 16 16 16 16 15 16 16 18 20 21 20 22 23 24 24 25 25 26 25
10 11 10 8 6 5 5 4 4 4 6 11 11 12 12 13 11 14 14 13 13 13 14 14 15 15 15 15 16 15 17 17 17 16 15 18 16 19 21 22 23 24 25 25 25
10 10 10 8 5 5 4 3 4 4 9 13 12 13 14 12 13 14 15 14 12 12 13 12 14 14 14 15 16 15 17 17 17 16 15 16 16 15 20 20 23 23 24 24 24
10 9 7 5 4 3 3 4 4 7 9 12 12 11 12 13 13 14 14 14 14 13 13 12 14 14 14 15 15 16 15 15 16 15 13 14 16 16 19 21 22 24 24 25 25
10 9 6 5 4 3 3 4 7 8 11 10 11 12 11 11 13 13 13 12 11 9 10 12 12 14 15 13 14 14 13 11 11 12 14 15 14 17 20 22 23 24 24 25 25
9 5 5 4 3 3 4 6 8 9 9 9 10 11 10 12 12 11 11 10 12 12 9 9 8 12 14 14 12 13 13 10 11 12 14 16 15 16 18 19 24 25 25 25 25
5 4 4 3 3 3 6 7 8 9 6 8 10 10 10 11 10 9 9 10 12 12 8 6 9 12 12 13 14 12 12 13 12 14 13 14 16 19 20 20 22 23 24 25 25
5 4 4 3 3 4 6 7 7 6 5 7 8 10 9 10 9 8 8 11 11 12 9 8 6 11 13 14 14 12 14 12 12 11 12 15 15 17 19 20 22 23 23 23 25
5 3 3 2 3 4 6 7 7 6 5 5 8 8 9 8 8 8 7 9 10 10 10 6 6 9 10 12 12 11 12 13 11 12 13 12 16 20 19 21 21 23 23 24 25
4 4 2 2 4 5 6 6 7 6 4 5 7 8 8 9 7 7 7 8 11 10 8 8 4 5 8 11 12 11 10 10 11 10 12 13 14 18 18 23 23 23 23 24 21
3 3 2 2 5 5 5 6 6 5 5 5 7 8 9 8 5 7 8 10 10 9 7 7 5 6 6 10 9 7 9 9 8 9 10 13 16 18 18 22 22 23 20 22 21
3 4 2 2 4 5 7 6 5 7 5 5 6 8 7 7 8 6 8 10 10 9 10 8 6 5 4 5 5 6 7 8 8 9 10 13 14 16 13 15 20 20 20 21 22
3 5 5 4 4 4 5 5 5 5 5 4 5 5 7 5 6 7 8 9 9 9 8 4 3 6 7 8 9 8 7 7 7 9 9 11 12 17 15 15 15 19 18 18 18
3 4 4 5 6 5 4 5 5 5 4 5 5 8 7 6 6 6 7 7 6 8 4 4 3 5 6 9 11 9 10 9 8 9 9 10 11 15 17 16 18 18 18 18 18
3 2 4 4 5 5 5 6 6 5 5 7 6 6 7 8 9 9 8 8 7 5 3 4 4 3 4 9 8 7 10 11 11 11 11 11 12 14 13 16 17 18 18 18 17
Height
815 812 810 808 805 802 799 796 795 793 791 789 787 783 780 775 768 761 751 743 743 741 742 743 744 740 738 735 735 735 750 746 739 736 724 707 707 696 695 702 699 695 695 699 713
811 808 806 803 801 799 797 794 791 789 788 787 784 781 777 772 763 749 743 742 738 738 739 739 739 739 737 730 730 733 736 731 723 716 717 705 702 700 705 704 703 698 697 703 714
807 805 803 800 798 795 792 789 787 786 785 783 782 780 776 770 759 733 736 739 736 732 729 734 734 738 735 725 725 724 722 718 714 712 709 706 703 695 703 710 701 703 703 706 714
803 800 797 795 791 788 786 784 783 782 781 779 777 776 774 773 759 735 734 736 736 733 731 733 734 733 728 722 719 723 712 712 712 708 708 707 701 701 699 701 691 691 691 700 710
796 793 789 786 783 782 781 779 777 776 776 775 775 773 772 765 747 741 736 736 736 735 732 731 729 729 727 722 720 715 709 705 705 704 702 702 704 702 699 692 689 687 692 692 702
787 783 779 776 774 772 771 771 771 772 773 771 771 771 770 758 737 737 736 735 735 735 735 733 729 727 723 714 711 707 710 704 700 697 697 701 699 699 694 688 687 688 686 691 697
778 774 770 765 763 761 762 763 764 765 765 768 769 767 763 738 733 732 733 735 734 734 734 730 730 732 728 719 704 704 713 706 695 691 692 694 699 692 688 686 687 688 690 691 695
770 765 762 757 753 751 752 756 758 759 760 762 764 764 752 732 728 728 729 728 727 726 727 726 726 729 729 714 706 705 706 711 682 690 682 695 689 686 682 685 686 684 684 686 687
763 759 754 750 744 740 741 746 751 753 753 756 758 759 739 726 725 723 724 723 721 722 719 720 720 726 724 720 719 703 701 692 688 677 683 684 685 681 676 678 681 679 678 680 682
755 751 746 741 738 733 735 741 746 749 749 748 750 754 734 721 720 721 723 723 722 720 718 716 718 722 719 714 702 697 696 689 682 678 680 681 675 675 672 672 674 674 671 673 674
748 743 738 733 729 727 732 740 746 746 742 731 731 726 716 717 719 718 719 719 719 719 721 711 715 707 696 701 697 692 689 681 671 670 674 675 669 666 664 665 667 666 665 666 667
740 736 732 726 722 721 728 735 739 744 743 732 726 723 722 725 722 715 713 717 715 718 715 715 701 695 701 697 697 696 696 686 677 669 668 664 655 657 655 652 656 657 657 659 659
733 729 725 721 716 722 726 735 739 743 746 723 715 716 716 718 718 711 710 709 710 710 706 705 693 690 689 690 692 689 691 682 683 679 667 662 662 651 644 642 645 646 646 647 649
726 723 721 716 722 725 730 735 739 742 739 712 713 712 714 714 713 706 709 710 705 704 701 694 688 689 691 687 682 685 674 678 677 688 689 673 678 658 650 647 639 641 641 640 640
720 717 716 712 715 723 729 735 737 741 723 703 709 709 708 711 707 700 703 705 707 705 708 696 689 692 688 681 684 677 672 675 677 682 686 678 680 660 644 646 636 634 633 634 633
715 713 707 713 718 723 730 736 738 734 722 706 706 711 712 707 706 701 701 702 702 703 703 697 692 690 683 678 680 674 679 677 674 680 685 672 681 652 642 631 627 621 624 624 627
709 708 709 713 722 729 733 737 733 723 711 717 712 707 711 711 703 700 701 702 706 718 709 697 690 683 680 686 679 681 688 693 694 682 661 660 671 646 626 616 609 614 613 613 617
700 704 713 716 725 731 734 736 727 719 720 721 716 714 715 706 705 707 708 711 703 701 709 712 707 682 671 674 680 672 677 687 681 668 651 636 644 628 622 611 594 594 600 602 608
707 713 720 726 728 732 733 728 719 720 733 727 716 716 709 704 716 717 713 706 697 693 717 724 699 678 673 667 666 665 667 662 670 654 654 643 627 607 599 605 596 595 591 591 597
712 720 728 730 732 735 733 726 727 733 739 733 726 716 718 709 718 722 716 701 699 698 708 711 720 680 664 657 648 652 651 665 659 668 655 625 630 613 599 595 590 590 591 590 587
718 729 737 737 740 742 733 729 724 732 737 738 723 723 715 718 721 723 721 708 704 707 707 719 717 691 677 658 656 660 655 651 658 650 644 643 611 573 585 576 581 582 579 580 579
728 734 742 741 741 736 726 724 725 729 736 734 725 722 719 713 720 721 717 711 702 708 713 713 728 716 690 660 656 660 659 664 659 656 638 639 609 575 588 562 559 565 565 566 575
733 738 741 744 733 727 725 723 723 728 728 731 720 716 713 718 729 713 709 703 704 710 716 714 721 713 700 664 677 685 671 672 672 664 658 640 591 582 579 558 555 559 567 566 571
732 733 740 739 730 723 715 719 722 718 725 727 725 716 717 716 711 715 709 703 702 707 705 711 718 721 727 714 713 699 685 678 673 663 656 618 601 598 609 600 570 564 564 563 563
724 719 715 723 724 723 722 717 715 719 722 725 723 718 715 725 715 710 704 701 700 703 706 724 733 713 703 692 685 680 681 679 678 666 657 632 618 600 606 605 594 571 566 569 571
714 714 715 708 705 713 717 712 711 714 718 718 715 702 701 713 710 710 706 710 713 705 719 719 727 713 703 683 664 667 662 658 660 655 647 633 605 604 596 608 591 574 573 576 576
703 706 709 706 704 707 703 698 700 707 708 699 707 705 697 691 693 695 698 701 703 713 722 719 720 723 712 679 679 679 647 636 633 639 638 624 610 607 611 597 595 579 572 575 577
Wind_Speed
22 23 23 23 22 22 21 21 20 20 20 20 22 23 24 26 31 28 22 20 24 25 21 27 25 19 18 16 16 16 13 16 22 19 19 15 12 5 6 9 10 9 8 3 30
26 25 25 25 25 25 24 23 22 21 21 22 22 23 24 26 32 32 27 8 8 12 20 23 20 18 11 14 11 16 13 23 16 15 17 16 13 6 8 9 9 7 8 30 28
29 29 28 26 26 26 25 24 24 23 21 22 22 23 24 26 21 1 15 13 13 16 19 25 22 20 22 18 19 20 24 15 17 21 21 18 15 7 8 8 8 9 15 15 12
35 35 33 31 29 28 27 26 25 23 22 21 20 21 22 20 8 13 5 26 17 10 5 16 15 18 20 23 17 20 24 21 20 21 20 16 14 11 8 10 9 10 22 18 17
41 42 41 36 34 31 29 27 27 24 22 21 20 19 20 12 17 31 33 16 10 7 5 8 15 16 22 19 17 25 23 21 22 20 20 18 21 11 15 11 11 11 10 23 20
45 45 45 44 38 35 31 28 28 25 22 21 19 17 18 24 15 14 12 12 8 9 15 9 6 10 15 22 24 11 22 23 22 23 19 20 20 15 15 14 8 9 6 20 21
44 46 49 48 48 40 34 29 26 23 22 21 19 17 17 28 16 24 32 31 27 23 17 20 14 9 11 13 23 19 25 22 23 25 22 16 23 25 15 13 11 11 9 15 17
46 46 45 48 50 46 34 28 23 20 22 21 18 18 15 19 16 19 21 22 16 18 21 22 14 6 7 11 8 15 22 21 28 21 21 20 32 20 16 16 17 12 10 11 18
46 46 47 46 47 46 35 26 19 18 22 21 19 15 12 8 8 7 8 9 10 11 13 15 12 6 7 13 13 11 16 26 23 24 19 19 26 21 16 21 20 17 11 12 12
45 46 46 43 43 42 28 17 12 17 16 14 16 6 10 11 5 1 10 9 7 10 9 11 7 7 8 12 20 19 18 18 22 19 20 24 26 15 17 17 18 20 16 13 16
43 43 43 38 34 25 20 3 3 4 9 9 10 8 16 12 17 22 19 18 15 11 10 8 11 19 25 18 20 19 18 21 19 18 17 27 29 22 19 20 19 18 20 16 15
44 39 42 38 40 24 20 6 6 5 6 16 22 22 27 22 12 14 10 7 13 16 14 12 21 18 16 17 21 20 22 27 22 20 16 22 26 25 22 24 23 18 19 22 19
40 37 39 43 15 21 15 12 11 5 2 10 13 9 8 10 8 10 6 7 7 9 10 16 11 15 18 18 20 22 24 23 22 18 22 18 29 19 17 23 20 23 16 17 17
40 38 39 16 14 18 10 16 10 4 1 4 5 5 5 4 5 13 12 6 3 4 8 12 13 17 19 21 18 21 25 24 21 16 16 13 21 20 19 23 20 18 21 17 17
39 36 31 20 26 9 16 18 12 3 4 6 7 8 6 5 9 6 11 11 12 12 9 11 17 18 17 21 17 25 17 21 22 21 21 28 11 9 18 22 20 24 23 21 14
35 31 26 19 11 25 27 18 7 2 4 3 4 5 6 7 7 7 8 10 11 16 15 22 19 18 19 19 19 19 21 23 21 19 20 28 22 11 17 21 26 18 26 23 19
28 10 17 16 12 29 24 7 3 3 3 1 2 4 6 10 12 11 8 8 7 9 11 15 19 20 21 24 23 20 12 10 11 12 15 17 21 23 17 19 22 26 22 21 20
7 30 14 25 36 30 10 2 3 4 2 7 4 7 7 12 5 8 7 11 11 11 11 11 19 13 16 23 19 23 19 9 15 15 20 25 11 20 24 24 21 26 27 25 23
25 24 13 26 32 18 0 2 1 2 2 2 7 8 9 2 2 4 6 10 7 1 3 3 11 18 24 21 9 21 22 20 22 21 10 3 7 10 22 30 29 13 8 23 26
12 7 7 27 21 4 1 2 2 4 4 3 3 2 3 3 3 3 3 8 10 12 6 5 8 11 20 16 11 24 13 14 10 17 24 14 16 14 11 26 27 29 23 11 17
12 4 10 19 9 1 2 4 3 8 7 6 5 6 7 4 6 5 5 10 6 7 5 3 5 12 15 5 9 5 14 14 4 8 14 8 8 24 24 21 27 29 26 25 18
4 3 14 18 2 2 4 4 5 9 7 8 6 10 11 7 5 5 7 9 9 6 6 5 3 6 18 24 11 11 2 2 11 9 3 1 14 20 18 26 25 28 24 24 8
2 2 8 1 3 5 2 4 8 8 9 7 9 11 6 8 4 6 8 11 7 1 1 2 3 6 13 4 12 6 8 8 8 3 8 8 15 10 14 13 16 18 9 15 12
3 3 2 3 4 5 9 8 8 11 5 9 5 10 10 11 11 5 3 3 1 4 10 3 3 3 7 10 8 11 13 11 6 2 7 20 22 19 24 25 6 7 8 12 15
3 4 4 5 8 14 5 2 11 6 8 9 4 15 12 6 10 14 12 9 2 9 2 3 3 10 12 14 16 16 16 10 7 7 8 12 22 14 20 19 30 6 7 8 9
4 3 4 4 8 13 17 8 10 8 10 7 12 12 15 16 13 6 10 8 8 4 4 3 3 11 16 17 13 16 18 14 15 14 14 20 24 11 15 5 17 7 5 6 7
4 3 2 4 3 5 7 14 13 10 12 14 15 16 15 15 13 9 5 5 7 4 5 4 1 3 6 10 15 12 7 10 12 7 7 13 16 19 16 4 12 6 7 7 7
Wind_Direction
309 305 304 303 304 307 307 308 312 315 319 321 323 324 323 320 312 300 277 264 273 268 256 263 266 257 257 231 225 212 234 240 239 246 264 269 270 290 274 242 242 245 212 181 151
297 296 295 293 294 297 300 301 304 306 312 317 319 323 325 320 308 286 261 315 322 281 265 244 240 247 250 220 218 220 218 233 248 247 252 267 268 264 258 232 243 249 81 124 145
289 288 288 288 287 285 288 289 293 298 305 314 317 323 325 324 308 39 118 17 345 320 235 228 232 228 238 232 213 226 234 235 236 245 266 277 293 242 238 260 213 237 137 140 160
290 287 281 279 278 278 279 282 287 291 297 305 310 318 321 317 296 136 306 332 327 341 214 225 249 260 249 233 235 237 236 238 243 262 275 274 272 283 254 254 268 236 159 158 172
293 288 281 270 268 269 270 275 278 281 288 298 306 314 321 288 256 275 301 307 310 329 301 274 244 239 245 249 243 247 247 239 238 244 250 266 267 253 266 263 261 268 159 164 175
292 288 282 274 264 262 260 260 268 277 284 291 298 306 297 272 267 281 299 302 268 315 304 283 277 304 291 254 235 237 242 249 248 249 247 247 256 258 238 257 243 276 184 172 178
299 294 284 274 269 259 255 255 259 270 277 286 294 293 274 258 271 281 290 288 282 286 280 271 263 270 330 265 248 249 260 268 254 240 243 249 258 234 242 242 243 239 191 179 187
303 300 299 289 269 259 247 251 256 263 277 285 288 287 266 271 262 268 276 280 268 257 249 256 257 281 246 280 292 248 230 246 246 242 246 217 248 242 227 237 242 235 217 197 186
306 303 305 300 285 259 240 242 247 262 276 281 281 237 268 271 232 266 278 274 254 282 252 243 218 223 279 245 256 240 233 226 243 231 240 223 243 238 240 222 233 233 217 201 194
308 310 308 300 298 269 228 229 249 277 277 260 230 273 249 254 249 248 299 288 276 285 281 234 204 220 200 218 222 229 228 243 251 230 232 241 244 233 230 240 232 226 218 226 199
309 312 300 308 298 261 194 154 237 243 209 210 190 239 299 235 309 300 282 266 263 258 262 265 208 220 220 219 248 272 266 257 253 242 246 227 243 242 227 225 234 226 228 217 227
318 312 311 310 305 182 163 157 114 99 295 266 263 264 273 278 284 277 234 226 218 241 244 251 247 243 254 245 242 250 255 263 275 274 251 251 253 232 230 224 225 230 221 222 218
316 314 314 310 179 143 127 116 113 108 255 277 238 247 248 191 227 265 218 191 252 260 244 236 257 290 256 251 241 248 243 255 260 283 284 270 270 252 225 232 210 231 228 224 204
316 314 315 159 122 125 110 132 121 144 360 179 196 210 165 223 235 236 252 282 267 285 310 260 258 256 268 269 247 252 243 263 264 264 260 263 267 248 225 246 214 227 227 229 206
316 319 305 171 140 153 146 136 144 179 294 122 123 139 139 238 338 112 225 222 257 290 290 254 295 299 286 258 274 271 266 254 261 257 258 259 262 253 210 227 223 218 223 226 207
315 327 154 120 99 127 131 132 156 121 226 155 117 197 222 236 254 270 240 220 252 272 260 272 279 279 276 277 279 278 267 276 246 253 253 254 239 248 218 217 225 220 222 214 216
307 284 151 134 128 133 133 143 93 221 157 176 309 198 266 287 290 301 302 284 272 301 286 294 283 277 253 259 264 262 250 253 254 233 244 221 236 235 227 219 223 218 221 213 206
337 140 117 123 137 138 140 85 216 169 84 333 294 295 274 292 322 356 316 289 270 270 278 275 294 268 256 253 225 239 230 238 218 233 247 240 242 233 227 250 225 209 217 212 204
123 93 102 134 140 146 313 159 341 130 112 265 304 264 286 176 184 321 294 286 287 336 257 330 269 319 301 286 257 245 234 240 249 266 275 273 243 271 214 228 252 253 217 201 202
103 64 81 139 142 141 71 293 202 104 127 255 227 282 260 310 330 4 292 286 332 347 40 312 286 275 283 304 274 211 212 231 217 234 253 241 231 246 216 216 217 238 243 234 194
55 61 113 140 130 18 225 222 187 162 163 201 240 243 251 239 234 261 254 300 358 341 350 239 264 293 308 260 259 267 220 237 271 211 236 289 273 231 221 214 211 222 227 221 213
90 79 163 152 155 212 223 198 187 179 191 244 272 271 264 267 284 253 237 251 303 353 337 32 295 289 280 273 344 289 198 282 241 235 222 192 265 279 283 228 208 211 215 205 175
78 109 148 298 236 210 211 241 206 181 195 196 233 223 245 253 260 256 254 262 285 254 236 317 293 312 329 60 17 346 321 0 300 224 242 254 257 341 281 217 209 199 193 183 167
131 150 170 211 290 283 237 230 215 213 209 213 275 264 262 259 252 255 286 290 249 341 318 7 267 193 253 267 251 289 287 294 285 266 338 236 264 269 287 306 312 172 176 185 180
144 213 188 182 230 232 251 235 222 204 212 204 226 230 244 237 254 261 253 276 270 294 94 107 250 278 272 290 278 268 254 259 255 254 251 321 281 271 259 287 291 293 145 145 143
167 203 178 255 226 210 221 218 220 206 185 205 225 232 210 237 229 291 299 284 253 268 141 169 270 314 289 288 308 322 284 261 237 251 261 266 281 246 262 243 264 159 95 129 154
176 118 129 175 187 199 204 217 223 220 212 231 214 237 245 230 232 262 326 333 302 223 213 196 259 326 258 318 319 300 291 296 228 215 297 282 315 325 319 315 326 297 139 153 167